owner,sensor,date,latitude,longitude,air_temperature,qcFlag 
DISL,ioos:station:DISL:PPTA:1,2013-08-01T00:00:00Z,30.2791,-87.5561,29.57,1111122 
DISL,ioos:station:DISL:PPTA:1,2013-08-01T00:30:00Z,30.2791,-87.5561,29.47,1111122 
DISL,ioos:station:DISL:PPTA:1,2013-08-01T01:00:00Z,30.2791,-87.5561,29.27,1111122 
DISL,ioos:station:DISL:PPTA:1,2013-08-01T01:30:00Z,30.2791,-87.5561,29.17,1111122 
DISL,ioos:station:DISL:PPTA:1,2013-08-01T02:00:00Z,30.2791,-87.5561,28.98,1111122 
DISL,ioos:station:DISL:PPTA:1,2013-08-01T02:30:00Z,30.2791,-87.5561,28.98,1111122 
DISL,ioos:station:DISL:PPTA:1,2013-08-01T03:00:00Z,30.2791,-87.5561,28.95,1111122 
DISL,ioos:station:DISL:PPTA:1,2013-08-01T03:30:00Z,30.2791,-87.5561,28.64,1111122 
DISL,ioos:station:DISL:PPTA:1,2013-08-01T04:00:00Z,30.2791,-87.5561,28.85,1111122 
DISL,ioos:station:DISL:PPTA:1,2013-08-01T04:30:00Z,30.2791,-87.5561,28.71,1111122 
DISL,ioos:station:DISL:PPTA:1,2013-08-01T05:00:00Z,30.2791,-87.5561,28.71,1111122 
DISL,ioos:station:DISL:PPTA:1,2013-08-01T05:30:00Z,30.2791,-87.5561,28.68,1111122 
DISL,ioos:station:DISL:PPTA:1,2013-08-01T06:00:00Z,30.2791,-87.5561,28.64,1111122 
DISL,ioos:station:DISL:PPTA:1,2013-08-01T06:30:00Z,30.2791,-87.5561,28.58,1111122 
DISL,ioos:station:DISL:PPTA:1,2013-08-01T07:00:00Z,30.2791,-87.5561,28.65,1111122 
DISL,ioos:station:DISL:PPTA:1,2013-08-01T07:30:00Z,30.2791,-87.5561,28.55,1111122 
DISL,ioos:station:DISL:PPTA:1,2013-08-01T08:00:00Z,30.2791,-87.5561,28.51,1111122 
DISL,ioos:station:DISL:PPTA:1,2013-08-01T08:30:00Z,30.2791,-87.5561,28.61,1111122 
DISL,ioos:station:DISL:PPTA:1,2013-08-01T09:00:00Z,30.2791,-87.5561,28.51,1111122 
DISL,ioos:station:DISL:PPTA:1,2013-08-01T09:30:00Z,30.2791,-87.5561,28.44,1111122 
DISL,ioos:station:DISL:PPTA:1,2013-08-01T10:00:00Z,30.2791,-87.5561,28.41,1111122 
DISL,ioos:station:DISL:PPTA:1,2013-08-01T10:30:00Z,30.2791,-87.5561,28.44,1111122 
DISL,ioos:station:DISL:PPTA:1,2013-08-01T11:00:00Z,30.2791,-87.5561,28.1,1111122 
DISL,ioos:station:DISL:PPTA:1,2013-08-01T11:30:00Z,30.2791,-87.5561,26.64,1111122 
DISL,ioos:station:DISL:PPTA:1,2013-08-01T12:00:00Z,30.2791,-87.5561,26.04,1111122 
DISL,ioos:station:DISL:PPTA:1,2013-08-01T12:30:00Z,30.2791,-87.5561,25.29,1111122 
DISL,ioos:station:DISL:PPTA:1,2013-08-01T13:00:00Z,30.2791,-87.5561,25.8,1111122 
DISL,ioos:station:DISL:PPTA:1,2013-08-01T13:30:00Z,30.2791,-87.5561,27.27,1111122 
DISL,ioos:station:DISL:PPTA:1,2013-08-01T14:00:00Z,30.2791,-87.5561,28.24,1111122 
DISL,ioos:station:DISL:PPTA:1,2013-08-01T14:30:00Z,30.2791,-87.5561,28.62,1111122 
DISL,ioos:station:DISL:PPTA:1,2013-08-01T15:00:00Z,30.2791,-87.5561,28.85,1111122 
DISL,ioos:station:DISL:PPTA:1,2013-08-01T15:30:00Z,30.2791,-87.5561,29.38,1111122 
DISL,ioos:station:DISL:PPTA:1,2013-08-01T16:00:00Z,30.2791,-87.5561,27.61,1111122 
DISL,ioos:station:DISL:PPTA:1,2013-08-01T16:30:00Z,30.2791,-87.5561,26.98,1111122 
DISL,ioos:station:DISL:PPTA:1,2013-08-01T17:00:00Z,30.2791,-87.5561,27.97,1111122 
DISL,ioos:station:DISL:PPTA:1,2013-08-01T17:30:00Z,30.2791,-87.5561,28.9,1111122 
DISL,ioos:station:DISL:PPTA:1,2013-08-01T18:00:00Z,30.2791,-87.5561,28.65,1111122 
DISL,ioos:station:DISL:PPTA:1,2013-08-01T18:30:00Z,30.2791,-87.5561,28.89,1111122 
DISL,ioos:station:DISL:PPTA:1,2013-08-01T19:00:00Z,30.2791,-87.5561,28.01,1111122 
DISL,ioos:station:DISL:PPTA:1,2013-08-01T19:30:00Z,30.2791,-87.5561,27.41,1111122 
DISL,ioos:station:DISL:PPTA:1,2013-08-01T20:00:00Z,30.2791,-87.5561,27.35,1111122 
DISL,ioos:station:DISL:PPTA:1,2013-08-01T20:30:00Z,30.2791,-87.5561,27.31,1111122 
DISL,ioos:station:DISL:PPTA:1,2013-08-01T21:00:00Z,30.2791,-87.5561,27.18,1111122 
DISL,ioos:station:DISL:PPTA:1,2013-08-01T21:30:00Z,30.2791,-87.5561,26.09,1111122 
DISL,ioos:station:DISL:PPTA:1,2013-08-01T22:00:00Z,30.2791,-87.5561,25.68,1111122 
DISL,ioos:station:DISL:PPTA:1,2013-08-01T22:30:00Z,30.2791,-87.5561,25.49,1111122 
DISL,ioos:station:DISL:PPTA:1,2013-08-01T23:00:00Z,30.2791,-87.5561,25.46,1111122 
DISL,ioos:station:DISL:PPTA:1,2013-08-01T23:30:00Z,30.2791,-87.5561,25.67,1111122 
DISL,ioos:station:DISL:PPTA:1,2013-08-02T00:00:00Z,30.2791,-87.5561,25.87,1111122 
DISL,ioos:station:DISL:PPTA:1,2013-08-02T00:30:00Z,30.2791,-87.5561,25.97,1111122 
DISL,ioos:station:DISL:PPTA:1,2013-08-02T01:00:00Z,30.2791,-87.5561,26.14,1111122 
DISL,ioos:station:DISL:PPTA:1,2013-08-02T01:30:00Z,30.2791,-87.5561,25.5,1111122 
DISL,ioos:station:DISL:PPTA:1,2013-08-02T02:00:00Z,30.2791,-87.5561,25.85,1111122 
DISL,ioos:station:DISL:PPTA:1,2013-08-02T02:30:00Z,30.2791,-87.5561,26.13,1111122 
DISL,ioos:station:DISL:PPTA:1,2013-08-02T03:00:00Z,30.2791,-87.5561,26.3,1111122 
DISL,ioos:station:DISL:PPTA:1,2013-08-02T03:30:00Z,30.2791,-87.5561,26.2,1111122 
DISL,ioos:station:DISL:PPTA:1,2013-08-02T04:00:00Z,30.2791,-87.5561,26.27,1111122 
DISL,ioos:station:DISL:PPTA:1,2013-08-02T04:30:00Z,30.2791,-87.5561,26.37,1111122 
DISL,ioos:station:DISL:PPTA:1,2013-08-02T05:00:00Z,30.2791,-87.5561,26.41,1111122 
DISL,ioos:station:DISL:PPTA:1,2013-08-02T05:30:00Z,30.2791,-87.5561,25.89,1111122 
DISL,ioos:station:DISL:PPTA:1,2013-08-02T06:00:00Z,30.2791,-87.5561,25.42,1111122 
DISL,ioos:station:DISL:PPTA:1,2013-08-02T06:30:00Z,30.2791,-87.5561,25.52,1111122 
DISL,ioos:station:DISL:PPTA:1,2013-08-02T07:00:00Z,30.2791,-87.5561,25.45,1111122 
DISL,ioos:station:DISL:PPTA:1,2013-08-02T07:30:00Z,30.2791,-87.5561,25.31,1111122 
DISL,ioos:station:DISL:PPTA:1,2013-08-02T08:00:00Z,30.2791,-87.5561,25.31,1111122 
DISL,ioos:station:DISL:PPTA:1,2013-08-02T08:30:00Z,30.2791,-87.5561,25.48,1111122 
DISL,ioos:station:DISL:PPTA:1,2013-08-02T09:00:00Z,30.2791,-87.5561,25.08,1111122 
DISL,ioos:station:DISL:PPTA:1,2013-08-02T09:30:00Z,30.2791,-87.5561,25.01,1111122 
DISL,ioos:station:DISL:PPTA:1,2013-08-02T10:00:00Z,30.2791,-87.5561,24.97,1111122 
DISL,ioos:station:DISL:PPTA:1,2013-08-02T10:30:00Z,30.2791,-87.5561,24.84,1111122 
DISL,ioos:station:DISL:PPTA:1,2013-08-02T11:00:00Z,30.2791,-87.5561,24.39,1111122 
DISL,ioos:station:DISL:PPTA:1,2013-08-02T11:30:00Z,30.2791,-87.5561,24.32,1111122 
DISL,ioos:station:DISL:PPTA:1,2013-08-02T12:00:00Z,30.2791,-87.5561,24.56,1111122 
DISL,ioos:station:DISL:PPTA:1,2013-08-02T12:30:00Z,30.2791,-87.5561,24.67,1111122 
DISL,ioos:station:DISL:PPTA:1,2013-08-02T13:00:00Z,30.2791,-87.5561,25.19,1111122 
DISL,ioos:station:DISL:PPTA:1,2013-08-02T13:30:00Z,30.2791,-87.5561,25.94,1111122 
DISL,ioos:station:DISL:PPTA:1,2013-08-02T14:00:00Z,30.2791,-87.5561,26.8,1111122 
DISL,ioos:station:DISL:PPTA:1,2013-08-02T14:30:00Z,30.2791,-87.5561,27.81,1111122 
DISL,ioos:station:DISL:PPTA:1,2013-08-02T15:00:00Z,30.2791,-87.5561,28.58,1111122 
DISL,ioos:station:DISL:PPTA:1,2013-08-02T15:30:00Z,30.2791,-87.5561,29.04,1111122 
DISL,ioos:station:DISL:PPTA:1,2013-08-02T16:00:00Z,30.2791,-87.5561,28.73,1111122 
DISL,ioos:station:DISL:PPTA:1,2013-08-02T16:30:00Z,30.2791,-87.5561,28.79,1111122 
DISL,ioos:station:DISL:PPTA:1,2013-08-02T17:00:00Z,30.2791,-87.5561,29.43,1111122 
DISL,ioos:station:DISL:PPTA:1,2013-08-02T17:30:00Z,30.2791,-87.5561,30.07,1111122 
DISL,ioos:station:DISL:PPTA:1,2013-08-02T18:00:00Z,30.2791,-87.5561,30.51,1111122 
DISL,ioos:station:DISL:PPTA:1,2013-08-02T18:30:00Z,30.2791,-87.5561,29.82,1111122 
DISL,ioos:station:DISL:PPTA:1,2013-08-02T19:00:00Z,30.2791,-87.5561,30.38,1111122 
DISL,ioos:station:DISL:PPTA:1,2013-08-02T19:30:00Z,30.2791,-87.5561,31.09,1111122 
DISL,ioos:station:DISL:PPTA:1,2013-08-02T20:00:00Z,30.2791,-87.5561,31.3,1111122 
DISL,ioos:station:DISL:PPTA:1,2013-08-02T20:30:00Z,30.2791,-87.5561,30.76,1111122 
DISL,ioos:station:DISL:PPTA:1,2013-08-02T21:00:00Z,30.2791,-87.5561,30.64,1111122 
DISL,ioos:station:DISL:PPTA:1,2013-08-02T21:30:00Z,30.2791,-87.5561,31.15,1111122 
DISL,ioos:station:DISL:PPTA:1,2013-08-02T22:00:00Z,30.2791,-87.5561,31.49,1111122 
DISL,ioos:station:DISL:PPTA:1,2013-08-02T22:30:00Z,30.2791,-87.5561,31.19,1111122 
DISL,ioos:station:DISL:PPTA:1,2013-08-02T23:00:00Z,30.2791,-87.5561,30.98,1111122 
DISL,ioos:station:DISL:PPTA:1,2013-08-02T23:30:00Z,30.2791,-87.5561,30.91,1111122 
DISL,ioos:station:DISL:PPTA:1,2013-08-03T00:00:00Z,30.2791,-87.5561,30.2,1111122 
DISL,ioos:station:DISL:PPTA:1,2013-08-03T00:30:00Z,30.2791,-87.5561,29.99,1111122 
DISL,ioos:station:DISL:PPTA:1,2013-08-03T01:00:00Z,30.2791,-87.5561,29.5,1111122 
DISL,ioos:station:DISL:PPTA:1,2013-08-03T01:30:00Z,30.2791,-87.5561,29.37,1111122 
DISL,ioos:station:DISL:PPTA:1,2013-08-03T02:00:00Z,30.2791,-87.5561,29.17,1111122 
DISL,ioos:station:DISL:PPTA:1,2013-08-03T02:30:00Z,30.2791,-87.5561,29.39,1111122 
DISL,ioos:station:DISL:PPTA:1,2013-08-03T03:00:00Z,30.2791,-87.5561,28.95,1111122 
DISL,ioos:station:DISL:PPTA:1,2013-08-03T03:30:00Z,30.2791,-87.5561,28.71,1111122 
DISL,ioos:station:DISL:PPTA:1,2013-08-03T04:00:00Z,30.2791,-87.5561,29.09,1111122 
DISL,ioos:station:DISL:PPTA:1,2013-08-03T04:30:00Z,30.2791,-87.5561,29.15,1111122 
DISL,ioos:station:DISL:PPTA:1,2013-08-03T05:00:00Z,30.2791,-87.5561,29.05,1111122 
DISL,ioos:station:DISL:PPTA:1,2013-08-03T05:30:00Z,30.2791,-87.5561,29.02,1111122 
DISL,ioos:station:DISL:PPTA:1,2013-08-03T06:00:00Z,30.2791,-87.5561,28.92,1111122 
DISL,ioos:station:DISL:PPTA:1,2013-08-03T06:30:00Z,30.2791,-87.5561,28.88,1111122 
DISL,ioos:station:DISL:PPTA:1,2013-08-03T07:00:00Z,30.2791,-87.5561,28.85,1111122 
DISL,ioos:station:DISL:PPTA:1,2013-08-03T07:30:00Z,30.2791,-87.5561,28.81,1111122 
DISL,ioos:station:DISL:PPTA:1,2013-08-03T08:00:00Z,30.2791,-87.5561,28.41,1111122 
DISL,ioos:station:DISL:PPTA:1,2013-08-03T08:30:00Z,30.2791,-87.5561,28.13,1111122 
DISL,ioos:station:DISL:PPTA:1,2013-08-03T09:00:00Z,30.2791,-87.5561,28.38,1111122 
DISL,ioos:station:DISL:PPTA:1,2013-08-03T09:30:00Z,30.2791,-87.5561,28.45,1111122 
DISL,ioos:station:DISL:PPTA:1,2013-08-03T10:00:00Z,30.2791,-87.5561,27.8,1111122 
DISL,ioos:station:DISL:PPTA:1,2013-08-03T10:30:00Z,30.2791,-87.5561,27.36,1111122 
DISL,ioos:station:DISL:PPTA:1,2013-08-03T11:00:00Z,30.2791,-87.5561,27.3,1111122 
DISL,ioos:station:DISL:PPTA:1,2013-08-03T11:30:00Z,30.2791,-87.5561,27.27,1111122 
DISL,ioos:station:DISL:PPTA:1,2013-08-03T12:00:00Z,30.2791,-87.5561,27.37,1111122 
DISL,ioos:station:DISL:PPTA:1,2013-08-03T12:30:00Z,30.2791,-87.5561,27.74,1111122 
DISL,ioos:station:DISL:PPTA:1,2013-08-03T13:00:00Z,30.2791,-87.5561,28.3,1111122 
DISL,ioos:station:DISL:PPTA:1,2013-08-03T13:30:00Z,30.2791,-87.5561,28.54,1111122 
DISL,ioos:station:DISL:PPTA:1,2013-08-03T14:00:00Z,30.2791,-87.5561,29.11,1111122 
DISL,ioos:station:DISL:PPTA:1,2013-08-03T14:30:00Z,30.2791,-87.5561,29.2,1111122 
DISL,ioos:station:DISL:PPTA:1,2013-08-03T15:00:00Z,30.2791,-87.5561,29.49,1111122 
DISL,ioos:station:DISL:PPTA:1,2013-08-03T15:30:00Z,30.2791,-87.5561,31.33,1111122 
DISL,ioos:station:DISL:PPTA:1,2013-08-03T16:00:00Z,30.2791,-87.5561,30.82,1111122 
DISL,ioos:station:DISL:PPTA:1,2013-08-03T16:30:00Z,30.2791,-87.5561,30.98,1111122 
DISL,ioos:station:DISL:PPTA:1,2013-08-03T17:00:00Z,30.2791,-87.5561,30.97,1111122 
DISL,ioos:station:DISL:PPTA:1,2013-08-03T17:30:00Z,30.2791,-87.5561,31.44,1111122 
DISL,ioos:station:DISL:PPTA:1,2013-08-03T18:00:00Z,30.2791,-87.5561,31.65,1111122 
DISL,ioos:station:DISL:PPTA:1,2013-08-03T18:30:00Z,30.2791,-87.5561,32.26,1111122 
DISL,ioos:station:DISL:PPTA:1,2013-08-03T19:00:00Z,30.2791,-87.5561,32.43,1111122 
DISL,ioos:station:DISL:PPTA:1,2013-08-03T19:30:00Z,30.2791,-87.5561,32.02,1111122 
DISL,ioos:station:DISL:PPTA:1,2013-08-03T20:00:00Z,30.2791,-87.5561,32.16,1111122 
DISL,ioos:station:DISL:PPTA:1,2013-08-03T20:30:00Z,30.2791,-87.5561,31.95,1111122 
DISL,ioos:station:DISL:PPTA:1,2013-08-03T21:00:00Z,30.2791,-87.5561,31.32,1111122 
DISL,ioos:station:DISL:PPTA:1,2013-08-03T21:30:00Z,30.2791,-87.5561,31.47,1111122 
DISL,ioos:station:DISL:PPTA:1,2013-08-03T22:00:00Z,30.2791,-87.5561,31.64,1111122 
DISL,ioos:station:DISL:PPTA:1,2013-08-03T22:30:00Z,30.2791,-87.5561,31.0,1111122 
DISL,ioos:station:DISL:PPTA:1,2013-08-03T23:00:00Z,30.2791,-87.5561,31.21,1111122 
DISL,ioos:station:DISL:PPTA:1,2013-08-03T23:30:00Z,30.2791,-87.5561,30.54,1111122 
DISL,ioos:station:DISL:PPTA:1,2013-08-04T00:00:00Z,30.2791,-87.5561,30.16,1111122 
DISL,ioos:station:DISL:PPTA:1,2013-08-04T00:30:00Z,30.2791,-87.5561,30.1,1111122 
DISL,ioos:station:DISL:PPTA:1,2013-08-04T01:00:00Z,30.2791,-87.5561,29.74,1111122 
DISL,ioos:station:DISL:PPTA:1,2013-08-04T01:30:00Z,30.2791,-87.5561,29.64,1111122 
DISL,ioos:station:DISL:PPTA:1,2013-08-04T02:00:00Z,30.2791,-87.5561,29.54,1111122 
DISL,ioos:station:DISL:PPTA:1,2013-08-04T02:30:00Z,30.2791,-87.5561,29.47,1111122 
DISL,ioos:station:DISL:PPTA:1,2013-08-04T03:00:00Z,30.2791,-87.5561,29.29,1111122 
DISL,ioos:station:DISL:PPTA:1,2013-08-04T03:30:00Z,30.2791,-87.5561,29.26,1111122 
DISL,ioos:station:DISL:PPTA:1,2013-08-04T04:00:00Z,30.2791,-87.5561,29.15,1111122 
DISL,ioos:station:DISL:PPTA:1,2013-08-04T04:30:00Z,30.2791,-87.5561,28.98,1111122 
DISL,ioos:station:DISL:PPTA:1,2013-08-04T05:00:00Z,30.2791,-87.5561,28.88,1111122 
DISL,ioos:station:DISL:PPTA:1,2013-08-04T05:30:00Z,30.2791,-87.5561,28.58,1111122 
DISL,ioos:station:DISL:PPTA:1,2013-08-04T06:00:00Z,30.2791,-87.5561,28.54,1111122 
DISL,ioos:station:DISL:PPTA:1,2013-08-04T06:30:00Z,30.2791,-87.5561,28.3,1111122 
DISL,ioos:station:DISL:PPTA:1,2013-08-04T07:00:00Z,30.2791,-87.5561,28.13,1111122 
DISL,ioos:station:DISL:PPTA:1,2013-08-04T07:30:00Z,30.2791,-87.5561,27.72,1111122 
DISL,ioos:station:DISL:PPTA:1,2013-08-04T08:00:00Z,30.2791,-87.5561,27.67,1111122 
DISL,ioos:station:DISL:PPTA:1,2013-08-04T08:30:00Z,30.2791,-87.5561,27.54,1111122 
DISL,ioos:station:DISL:PPTA:1,2013-08-04T09:00:00Z,30.2791,-87.5561,27.61,1111122 
DISL,ioos:station:DISL:PPTA:1,2013-08-04T09:30:00Z,30.2791,-87.5561,27.41,1111122 
DISL,ioos:station:DISL:PPTA:1,2013-08-04T10:00:00Z,30.2791,-87.5561,27.27,1111122 
DISL,ioos:station:DISL:PPTA:1,2013-08-04T10:30:00Z,30.2791,-87.5561,27.23,1111122 
DISL,ioos:station:DISL:PPTA:1,2013-08-04T11:00:00Z,30.2791,-87.5561,27.06,1111122 
DISL,ioos:station:DISL:PPTA:1,2013-08-04T11:30:00Z,30.2791,-87.5561,26.79,1111122 
DISL,ioos:station:DISL:PPTA:1,2013-08-04T12:00:00Z,30.2791,-87.5561,27.1,1111122 
DISL,ioos:station:DISL:PPTA:1,2013-08-04T12:30:00Z,30.2791,-87.5561,27.7,1111122 
DISL,ioos:station:DISL:PPTA:1,2013-08-04T13:00:00Z,30.2791,-87.5561,27.96,1111122 
DISL,ioos:station:DISL:PPTA:1,2013-08-04T13:30:00Z,30.2791,-87.5561,28.21,1111122 
DISL,ioos:station:DISL:PPTA:1,2013-08-04T14:00:00Z,30.2791,-87.5561,28.92,1111122 
DISL,ioos:station:DISL:PPTA:1,2013-08-04T14:30:00Z,30.2791,-87.5561,29.93,1111122 
DISL,ioos:station:DISL:PPTA:1,2013-08-04T15:00:00Z,30.2791,-87.5561,30.43,1111122 
DISL,ioos:station:DISL:PPTA:1,2013-08-04T15:30:00Z,30.2791,-87.5561,30.92,1111122 
DISL,ioos:station:DISL:PPTA:1,2013-08-04T16:00:00Z,30.2791,-87.5561,31.29,1111122 
DISL,ioos:station:DISL:PPTA:1,2013-08-04T16:30:00Z,30.2791,-87.5561,31.82,1111122 
DISL,ioos:station:DISL:PPTA:1,2013-08-04T17:00:00Z,30.2791,-87.5561,31.99,1111122 
DISL,ioos:station:DISL:PPTA:1,2013-08-04T17:30:00Z,30.2791,-87.5561,32.09,1111122 
DISL,ioos:station:DISL:PPTA:1,2013-08-04T18:00:00Z,30.2791,-87.5561,32.46,1111122 
DISL,ioos:station:DISL:PPTA:1,2013-08-04T18:30:00Z,30.2791,-87.5561,33.35,1111122 
DISL,ioos:station:DISL:PPTA:1,2013-08-04T19:00:00Z,30.2791,-87.5561,32.94,1111122 
DISL,ioos:station:DISL:PPTA:1,2013-08-04T19:30:00Z,30.2791,-87.5561,31.67,1111122 
DISL,ioos:station:DISL:PPTA:1,2013-08-04T20:00:00Z,30.2791,-87.5561,32.09,1111122 
DISL,ioos:station:DISL:PPTA:1,2013-08-04T20:30:00Z,30.2791,-87.5561,31.27,1111122 
DISL,ioos:station:DISL:PPTA:1,2013-08-04T21:00:00Z,30.2791,-87.5561,31.31,1111122 
DISL,ioos:station:DISL:PPTA:1,2013-08-04T21:30:00Z,30.2791,-87.5561,31.83,1111122 
DISL,ioos:station:DISL:PPTA:1,2013-08-04T22:00:00Z,30.2791,-87.5561,31.84,1111122 
DISL,ioos:station:DISL:PPTA:1,2013-08-04T22:30:00Z,30.2791,-87.5561,31.88,1111122 
DISL,ioos:station:DISL:PPTA:1,2013-08-04T23:00:00Z,30.2791,-87.5561,31.67,1111122 
DISL,ioos:station:DISL:PPTA:1,2013-08-04T23:30:00Z,30.2791,-87.5561,31.03,1111122 
DISL,ioos:station:DISL:PPTA:1,2013-08-05T00:00:00Z,30.2791,-87.5561,27.37,1111122 
DISL,ioos:station:DISL:PPTA:1,2013-08-05T00:30:00Z,30.2791,-87.5561,26.04,1111122 
DISL,ioos:station:DISL:PPTA:1,2013-08-05T01:00:00Z,30.2791,-87.5561,26.44,1111122 
DISL,ioos:station:DISL:PPTA:1,2013-08-05T01:30:00Z,30.2791,-87.5561,26.48,1111122 
DISL,ioos:station:DISL:PPTA:1,2013-08-05T02:00:00Z,30.2791,-87.5561,26.52,1111122 
DISL,ioos:station:DISL:PPTA:1,2013-08-05T02:30:00Z,30.2791,-87.5561,26.79,1111122 
DISL,ioos:station:DISL:PPTA:1,2013-08-05T03:00:00Z,30.2791,-87.5561,27.13,1111122 
DISL,ioos:station:DISL:PPTA:1,2013-08-05T03:30:00Z,30.2791,-87.5561,26.86,1111122 
DISL,ioos:station:DISL:PPTA:1,2013-08-05T04:00:00Z,30.2791,-87.5561,26.69,1111122 
DISL,ioos:station:DISL:PPTA:1,2013-08-05T04:30:00Z,30.2791,-87.5561,26.59,1111122 
DISL,ioos:station:DISL:PPTA:1,2013-08-05T05:00:00Z,30.2791,-87.5561,26.42,1111122 
DISL,ioos:station:DISL:PPTA:1,2013-08-05T05:30:00Z,30.2791,-87.5561,26.8,1111122 
DISL,ioos:station:DISL:PPTA:1,2013-08-05T06:00:00Z,30.2791,-87.5561,26.7,1111122 
DISL,ioos:station:DISL:PPTA:1,2013-08-05T06:30:00Z,30.2791,-87.5561,26.7,1111122 
DISL,ioos:station:DISL:PPTA:1,2013-08-05T07:00:00Z,30.2791,-87.5561,26.84,1111122 
DISL,ioos:station:DISL:PPTA:1,2013-08-05T07:30:00Z,30.2791,-87.5561,26.83,1111122 
DISL,ioos:station:DISL:PPTA:1,2013-08-05T08:00:00Z,30.2791,-87.5561,26.66,1111122 
DISL,ioos:station:DISL:PPTA:1,2013-08-05T08:30:00Z,30.2791,-87.5561,26.67,1111122 
DISL,ioos:station:DISL:PPTA:1,2013-08-05T09:00:00Z,30.2791,-87.5561,26.78,1111122 
DISL,ioos:station:DISL:PPTA:1,2013-08-05T09:30:00Z,30.2791,-87.5561,26.75,1111122 
DISL,ioos:station:DISL:PPTA:1,2013-08-05T10:00:00Z,30.2791,-87.5561,26.67,1111122 
DISL,ioos:station:DISL:PPTA:1,2013-08-05T10:30:00Z,30.2791,-87.5561,27.04,1111122 
DISL,ioos:station:DISL:PPTA:1,2013-08-05T11:00:00Z,30.2791,-87.5561,26.73,1111122 
DISL,ioos:station:DISL:PPTA:1,2013-08-05T11:30:00Z,30.2791,-87.5561,26.66,1111122 
DISL,ioos:station:DISL:PPTA:1,2013-08-05T12:00:00Z,30.2791,-87.5561,26.69,1111122 
DISL,ioos:station:DISL:PPTA:1,2013-08-05T12:30:00Z,30.2791,-87.5561,27.06,1111122 
DISL,ioos:station:DISL:PPTA:1,2013-08-05T13:00:00Z,30.2791,-87.5561,27.52,1111122 
DISL,ioos:station:DISL:PPTA:1,2013-08-05T14:00:00Z,30.2791,-87.5561,28.69,1111122 
DISL,ioos:station:DISL:PPTA:1,2013-08-05T14:30:00Z,30.2791,-87.5561,29.01,1111122 
DISL,ioos:station:DISL:PPTA:1,2013-08-05T15:00:00Z,30.2791,-87.5561,29.21,1111122 
DISL,ioos:station:DISL:PPTA:1,2013-08-05T15:30:00Z,30.2791,-87.5561,30.5,1111122 
DISL,ioos:station:DISL:PPTA:1,2013-08-05T16:00:00Z,30.2791,-87.5561,31.07,1111122 
DISL,ioos:station:DISL:PPTA:1,2013-08-05T16:30:00Z,30.2791,-87.5561,31.36,1111122 
DISL,ioos:station:DISL:PPTA:1,2013-08-05T17:00:00Z,30.2791,-87.5561,31.17,1111122 
DISL,ioos:station:DISL:PPTA:1,2013-08-05T17:30:00Z,30.2791,-87.5561,31.72,1111122 
DISL,ioos:station:DISL:PPTA:1,2013-08-05T18:00:00Z,30.2791,-87.5561,31.99,1111122 
DISL,ioos:station:DISL:PPTA:1,2013-08-05T18:30:00Z,30.2791,-87.5561,30.63,1111122 
DISL,ioos:station:DISL:PPTA:1,2013-08-05T19:00:00Z,30.2791,-87.5561,31.65,1111122 
DISL,ioos:station:DISL:PPTA:1,2013-08-05T19:30:00Z,30.2791,-87.5561,31.78,1111122 
DISL,ioos:station:DISL:PPTA:1,2013-08-05T20:00:00Z,30.2791,-87.5561,30.76,1111122 
DISL,ioos:station:DISL:PPTA:1,2013-08-05T20:30:00Z,30.2791,-87.5561,30.7,1111122 
DISL,ioos:station:DISL:PPTA:1,2013-08-05T21:00:00Z,30.2791,-87.5561,29.46,1111122 
DISL,ioos:station:DISL:PPTA:1,2013-08-05T21:30:00Z,30.2791,-87.5561,28.46,1111122 
DISL,ioos:station:DISL:PPTA:1,2013-08-05T22:00:00Z,30.2791,-87.5561,29.02,1111122 
DISL,ioos:station:DISL:PPTA:1,2013-08-05T22:30:00Z,30.2791,-87.5561,29.95,1111122 
DISL,ioos:station:DISL:PPTA:1,2013-08-05T23:00:00Z,30.2791,-87.5561,29.57,1111122 
DISL,ioos:station:DISL:PPTA:1,2013-08-05T23:30:00Z,30.2791,-87.5561,29.88,1111122 
DISL,ioos:station:DISL:PPTA:1,2013-08-06T00:00:00Z,30.2791,-87.5561,29.61,1111122 
DISL,ioos:station:DISL:PPTA:1,2013-08-06T00:30:00Z,30.2791,-87.5561,28.55,1111122 
DISL,ioos:station:DISL:PPTA:1,2013-08-06T01:00:00Z,30.2791,-87.5561,28.08,1111122 
DISL,ioos:station:DISL:PPTA:1,2013-08-06T01:30:00Z,30.2791,-87.5561,27.65,1111122 
DISL,ioos:station:DISL:PPTA:1,2013-08-06T02:00:00Z,30.2791,-87.5561,27.18,1111122 
DISL,ioos:station:DISL:PPTA:1,2013-08-06T02:30:00Z,30.2791,-87.5561,27.25,1111122 
DISL,ioos:station:DISL:PPTA:1,2013-08-06T03:00:00Z,30.2791,-87.5561,27.15,1111122 
DISL,ioos:station:DISL:PPTA:1,2013-08-06T03:30:00Z,30.2791,-87.5561,26.98,1111122 
DISL,ioos:station:DISL:PPTA:1,2013-08-06T04:00:00Z,30.2791,-87.5561,27.26,1111122 
DISL,ioos:station:DISL:PPTA:1,2013-08-06T04:30:00Z,30.2791,-87.5561,27.13,1111122 
DISL,ioos:station:DISL:PPTA:1,2013-08-06T05:00:00Z,30.2791,-87.5561,26.93,1111122 
DISL,ioos:station:DISL:PPTA:1,2013-08-06T05:30:00Z,30.2791,-87.5561,27.1,1111122 
DISL,ioos:station:DISL:PPTA:1,2013-08-06T06:00:00Z,30.2791,-87.5561,26.86,1111122 
DISL,ioos:station:DISL:PPTA:1,2013-08-06T06:30:00Z,30.2791,-87.5561,26.72,1111122 
DISL,ioos:station:DISL:PPTA:1,2013-08-06T07:00:00Z,30.2791,-87.5561,26.79,1111122 
DISL,ioos:station:DISL:PPTA:1,2013-08-06T07:30:00Z,30.2791,-87.5561,26.52,1111122 
DISL,ioos:station:DISL:PPTA:1,2013-08-06T08:00:00Z,30.2791,-87.5561,26.08,1111122 
DISL,ioos:station:DISL:PPTA:1,2013-08-06T08:30:00Z,30.2791,-87.5561,26.35,1111122 
DISL,ioos:station:DISL:PPTA:1,2013-08-06T09:00:00Z,30.2791,-87.5561,26.18,1111122 
DISL,ioos:station:DISL:PPTA:1,2013-08-06T09:30:00Z,30.2791,-87.5561,26.25,1111122 
DISL,ioos:station:DISL:PPTA:1,2013-08-06T10:00:00Z,30.2791,-87.5561,26.28,1111122 
DISL,ioos:station:DISL:PPTA:1,2013-08-06T10:30:00Z,30.2791,-87.5561,26.04,1111122 
DISL,ioos:station:DISL:PPTA:1,2013-08-06T11:00:00Z,30.2791,-87.5561,26.18,1111122 
DISL,ioos:station:DISL:PPTA:1,2013-08-06T11:30:00Z,30.2791,-87.5561,26.05,1111122 
DISL,ioos:station:DISL:PPTA:1,2013-08-06T12:00:00Z,30.2791,-87.5561,26.11,1111122 
DISL,ioos:station:DISL:PPTA:1,2013-08-06T12:30:00Z,30.2791,-87.5561,26.28,1111122 
DISL,ioos:station:DISL:PPTA:1,2013-08-06T13:00:00Z,30.2791,-87.5561,26.42,1111122 
DISL,ioos:station:DISL:PPTA:1,2013-08-06T13:30:00Z,30.2791,-87.5561,27.01,1111122 
DISL,ioos:station:DISL:PPTA:1,2013-08-06T14:00:00Z,30.2791,-87.5561,27.88,1111122 
DISL,ioos:station:DISL:PPTA:1,2013-08-06T14:30:00Z,30.2791,-87.5561,28.79,1111122 
DISL,ioos:station:DISL:PPTA:1,2013-08-06T15:00:00Z,30.2791,-87.5561,29.11,1111122 
DISL,ioos:station:DISL:PPTA:1,2013-08-06T15:30:00Z,30.2791,-87.5561,29.75,1111122 
DISL,ioos:station:DISL:PPTA:1,2013-08-06T16:00:00Z,30.2791,-87.5561,30.21,1111122 
DISL,ioos:station:DISL:PPTA:1,2013-08-06T16:30:00Z,30.2791,-87.5561,30.54,1111122 
DISL,ioos:station:DISL:PPTA:1,2013-08-06T17:00:00Z,30.2791,-87.5561,31.18,1111122 
DISL,ioos:station:DISL:PPTA:1,2013-08-06T17:30:00Z,30.2791,-87.5561,32.13,1111122 
DISL,ioos:station:DISL:PPTA:1,2013-08-06T18:00:00Z,30.2791,-87.5561,31.65,1111122 
DISL,ioos:station:DISL:PPTA:1,2013-08-06T18:30:00Z,30.2791,-87.5561,31.65,1111122 
DISL,ioos:station:DISL:PPTA:1,2013-08-06T19:00:00Z,30.2791,-87.5561,31.31,1111122 
DISL,ioos:station:DISL:PPTA:1,2013-08-06T19:30:00Z,30.2791,-87.5561,30.91,1111122 
DISL,ioos:station:DISL:PPTA:1,2013-08-06T20:00:00Z,30.2791,-87.5561,28.44,1111122 
DISL,ioos:station:DISL:PPTA:1,2013-08-06T20:30:00Z,30.2791,-87.5561,28.32,1111122 
DISL,ioos:station:DISL:PPTA:1,2013-08-06T21:00:00Z,30.2791,-87.5561,29.88,1111122 
DISL,ioos:station:DISL:PPTA:1,2013-08-06T21:30:00Z,30.2791,-87.5561,32.39,1111122 
DISL,ioos:station:DISL:PPTA:1,2013-08-06T22:00:00Z,30.2791,-87.5561,31.39,1111122 
DISL,ioos:station:DISL:PPTA:1,2013-08-06T22:30:00Z,30.2791,-87.5561,29.93,1111122 
DISL,ioos:station:DISL:PPTA:1,2013-08-06T23:00:00Z,30.2791,-87.5561,28.94,1111122 
DISL,ioos:station:DISL:PPTA:1,2013-08-06T23:30:00Z,30.2791,-87.5561,27.32,1111122 
DISL,ioos:station:DISL:PPTA:1,2013-08-07T00:00:00Z,30.2791,-87.5561,26.42,1111122 